When you browse on this site, cookies collect data to enhance your experience and personalize the content and advertising you see.
Visit our Privacy Policy to learn more. By continuing to use the site, you agree to this use of cookies and data.

Stündliche Wetter Kapan

Heute, 18 September, Freitag

Zeit Temperatur Niederschläge Wind Luftdruck Luftfeuchtigkeit
00:00 +17°C° 0 mm 0 m/S 687 mmHg 85%
01:00 +17°C° 0 mm 0 m/S 687 mmHg 85%
02:00 +16°C° 0 mm 0 m/S 686 mmHg 85%
03:00 +16°C° 0 mm 0 m/S 686 mmHg 86%
04:00 +16°C° 0 mm 0 m/S 686 mmHg 85%
05:00 +16°C° 0 mm 0 m/S 686 mmHg 83%
06:00 +16°C° 0 mm 0 m/S 686 mmHg 82%
07:00 +20°C° 0 mm 1 m/S 686 mmHg 76%
08:00 +22°C° 0 mm 1 m/S 686 mmHg 69%
09:00 +24°C° 0 mm 1 m/S 686 mmHg 63%
10:00 +25°C° 0 mm 2 m/S 686 mmHg 56%
11:00 +27°C° 0 mm 2 m/S 686 mmHg 50%
12:00 +29°C° 0 mm 3 m/S 686 mmHg 44%
13:00 +29°C° 0 mm 3 m/S 685 mmHg 43%
14:00 +29°C° 0 mm 3 m/S 684 mmHg 42%
15:00 +29°C° 0 mm 2 m/S 684 mmHg 41%
16:00 +27°C° 0 mm 2 m/S 684 mmHg 49%
17:00 +25°C° 0 mm 1 m/S 683 mmHg 58%
18:00 +23°C° 0 mm 1 m/S 683 mmHg 66%
19:00 +23°C° 0 mm 1 m/S 683 mmHg 66%
20:00 +22°C° 0 mm 1 m/S 683 mmHg 66%
21:00 +22°C° 0 mm 1 m/S 683 mmHg 65%
22:00 +21°C° 0 mm 1 m/S 682 mmHg 65%
23:00 +21°C° 0 mm 1 m/S 682 mmHg 64%

Morgen, 19 September, Samstag

Zeit Temperatur Niederschläge Wind Luftdruck Luftfeuchtigkeit
00:00 +21°C° 0 mm 1 m/S 682 mmHg 64%
01:00 +21°C° 0 mm 1 m/S 682 mmHg 62%
02:00 +21°C° 0 mm 1 m/S 682 mmHg 60%
03:00 +20°C° 0 mm 1 m/S 681 mmHg 58%
04:00 +20°C° 0 mm 1 m/S 681 mmHg 58%
05:00 +20°C° 0 mm 1 m/S 682 mmHg 59%
06:00 +20°C° 0 mm 1 m/S 682 mmHg 59%
07:00 +22°C° 0 mm 1 m/S 682 mmHg 54%
08:00 +25°C° 0 mm 1 m/S 683 mmHg 49%
09:00 +27°C° 0 mm 2 m/S 683 mmHg 44%
10:00 +28°C° 0 mm 2 m/S 683 mmHg 39%
11:00 +29°C° 0 mm 3 m/S 683 mmHg 35%
12:00 +30°C° 0 mm 3 m/S 683 mmHg 31%
13:00 +30°C° 0 mm 3 m/S 683 mmHg 31%
14:00 +30°C° 0 mm 4 m/S 682 mmHg 31%
15:00 +30°C° 0 mm 4 m/S 682 mmHg 32%
16:00 +28°C° 0 mm 3 m/S 682 mmHg 39%
17:00 +26°C° 0 mm 2 m/S 682 mmHg 45%
18:00 +24°C° 0 mm 2 m/S 682 mmHg 52%
19:00 +23°C° 0 mm 1 m/S 682 mmHg 55%
20:00 +23°C° 0 mm 1 m/S 682 mmHg 58%
21:00 +22°C° 0 mm 1 m/S 683 mmHg 61%
22:00 +21°C° 0 mm 1 m/S 683 mmHg 65%
23:00 +21°C° 0 mm 1 m/S 684 mmHg 70%

übermorgen, 20 September, Sonntag

Zeit Temperatur Niederschläge Wind Luftdruck Luftfeuchtigkeit
00:00 +20°C° 0 mm 1 m/S 684 mmHg 74%
01:00 +19°C° 0 mm 1 m/S 684 mmHg 76%
02:00 +19°C° 0 mm 1 m/S 684 mmHg 78%
03:00 +18°C° 0 mm 1 m/S 684 mmHg 80%
04:00 +18°C° 0 mm 1 m/S 684 mmHg 83%
05:00 +16°C° 0 mm 1 m/S 684 mmHg 85%
06:00 +16°C° 0 mm 1 m/S 685 mmHg 87%
07:00 +19°C° 0 mm 1 m/S 685 mmHg 81%
08:00 +19°C° 0 mm 2 m/S 685 mmHg 74%
09:00 +20°C° 0 mm 2 m/S 685 mmHg 68%
10:00 +21°C° 0 mm 2 m/S 685 mmHg 64%
11:00 +22°C° 0 mm 3 m/S 685 mmHg 60%
12:00 +24°C° 0 mm 3 m/S 685 mmHg 57%
13:00 +24°C° 0 mm 3 m/S 684 mmHg 56%
14:00 +24°C° 0 mm 3 m/S 684 mmHg 56%
15:00 +24°C° 0 mm 3 m/S 683 mmHg 55%
16:00 +22°C° 0 mm 3 m/S 683 mmHg 62%
17:00 +20°C° 0 mm 3 m/S 683 mmHg 69%
18:00 +19°C° 0 mm 2 m/S 683 mmHg 76%
19:00 +19°C° 0 mm 2 m/S 683 mmHg 80%
20:00 +18°C° 0 mm 2 m/S 684 mmHg 84%
21:00 +18°C° 0 mm 2 m/S 684 mmHg 87%
22:00 +18°C° 0.1 mm 2 m/S 684 mmHg 88%
23:00 +18°C° 0.1 mm 2 m/S 685 mmHg 89%

21 September, Montag

Zeit Temperatur Niederschläge Wind Luftdruck Luftfeuchtigkeit
00:00 +18°C° 0.1 mm 2 m/S 685 mmHg 90%
01:00 +17°C° 0 mm 2 m/S 685 mmHg 91%
02:00 +17°C° 0 mm 2 m/S 685 mmHg 91%
03:00 +17°C° 0 mm 2 m/S 685 mmHg 91%
04:00 +17°C° 0 mm 2 m/S 685 mmHg 92%
05:00 +18°C° 0 mm 1 m/S 686 mmHg 93%
06:00 +16°C° 0 mm 1 m/S 686 mmHg 94%
07:00 +18°C° 0.1 mm 1 m/S 686 mmHg 92%
08:00 +17°C° 0.1 mm 2 m/S 687 mmHg 90%
09:00 +18°C° 0.1 mm 2 m/S 687 mmHg 88%
10:00 +18°C° 0.1 mm 2 m/S 687 mmHg 87%
11:00 +18°C° 0.1 mm 2 m/S 687 mmHg 86%
12:00 +18°C° 0.1 mm 2 m/S 687 mmHg 86%
13:00 +18°C° 0 mm 2 m/S 686 mmHg 85%
14:00 +18°C° 0 mm 2 m/S 686 mmHg 85%
15:00 +18°C° 0 mm 3 m/S 685 mmHg 85%
16:00 +18°C° 0 mm 2 m/S 685 mmHg 88%
17:00 +17°C° 0 mm 2 m/S 685 mmHg 90%
18:00 +18°C° 0 mm 1 m/S 685 mmHg 92%
19:00 +16°C° 0 mm 1 m/S 686 mmHg 93%
20:00 +16°C° 0 mm 1 m/S 686 mmHg 93%
21:00 +16°C° 0 mm 1 m/S 686 mmHg 93%
22:00 +16°C° 0 mm 1 m/S 686 mmHg 92%
23:00 +16°C° 0 mm 1 m/S 686 mmHg 91%

22 September, Dienstag

Zeit Temperatur Niederschläge Wind Luftdruck Luftfeuchtigkeit
00:00 +15°C° 0 mm 0 m/S 686 mmHg 91%
01:00 +15°C° 0 mm 0 m/S 686 mmHg 90%
02:00 +15°C° 0 mm 0 m/S 685 mmHg 90%
03:00 +14°C° 0 mm 0 m/S 685 mmHg 90%
04:00 +14°C° 0 mm 0 m/S 685 mmHg 90%
05:00 +15°C° 0 mm 0 m/S 685 mmHg 89%
06:00 +15°C° 0 mm 0 m/S 685 mmHg 89%
07:00 +18°C° 0 mm 1 m/S 686 mmHg 81%
08:00 +20°C° 0 mm 1 m/S 686 mmHg 74%
09:00 +20°C° 0 mm 2 m/S 686 mmHg 67%
10:00 +23°C° 0 mm 2 m/S 686 mmHg 62%
11:00 +24°C° 0 mm 2 m/S 686 mmHg 56%
12:00 +25°C° 0 mm 3 m/S 686 mmHg 51%
13:00 +25°C° 0 mm 3 m/S 685 mmHg 52%
14:00 +25°C° 0 mm 3 m/S 685 mmHg 53%
15:00 +25°C° 0 mm 4 m/S 684 mmHg 54%
16:00 +24°C° 0 mm 3 m/S 684 mmHg 63%
17:00 +21°C° 0 mm 3 m/S 684 mmHg 72%
18:00 +19°C° 0 mm 2 m/S 684 mmHg 80%
19:00 +19°C° 0 mm 2 m/S 684 mmHg 81%
20:00 +20°C° 0 mm 1 m/S 684 mmHg 82%
21:00 +20°C° 0 mm 1 m/S 685 mmHg 82%
22:00 +19°C° 0 mm 1 m/S 685 mmHg 83%
23:00 +18°C° 0 mm 2 m/S 685 mmHg 85%

23 September, Mittwoch

Zeit Temperatur Niederschläge Wind Luftdruck Luftfeuchtigkeit
00:00 +18°C° 0 mm 2 m/S 685 mmHg 86%
01:00 +18°C° 0 mm 2 m/S 685 mmHg 86%
02:00 +17°C° 0 mm 2 m/S 685 mmHg 87%
03:00 +17°C° 0 mm 2 m/S 685 mmHg 87%
04:00 +17°C° 0 mm 2 m/S 685 mmHg 88%
05:00 +16°C° 0 mm 2 m/S 685 mmHg 89%
06:00 +16°C° 0 mm 1 m/S 686 mmHg 90%
07:00 +17°C° 0 mm 2 m/S 686 mmHg 88%
08:00 +17°C° 0 mm 2 m/S 686 mmHg 86%
09:00 +17°C° 0 mm 2 m/S 686 mmHg 84%
10:00 +18°C° 0 mm 2 m/S 686 mmHg 82%
11:00 +18°C° 0 mm 2 m/S 686 mmHg 81%
12:00 +19°C° 0 mm 2 m/S 686 mmHg 79%
13:00 +19°C° 0 mm 2 m/S 685 mmHg 77%
14:00 +19°C° 0 mm 2 m/S 685 mmHg 75%
15:00 +20°C° 0 mm 2 m/S 685 mmHg 72%
16:00 +19°C° 0 mm 2 m/S 685 mmHg 76%
17:00 +18°C° 0 mm 2 m/S 685 mmHg 81%
18:00 +19°C° 0 mm 1 m/S 685 mmHg 85%
19:00 +19°C° 0 mm 1 m/S 685 mmHg 83%
20:00 +19°C° 0 mm 1 m/S 685 mmHg 82%
21:00 +19°C° 0 mm 1 m/S 686 mmHg 81%
22:00 +18°C° 0 mm 1 m/S 686 mmHg 83%
23:00 +18°C° 0 mm 1 m/S 686 mmHg 84%
Mehr zeigen